(509830) = 2008 XQ1

Discovered at Kitt Peak on 2008-10-23 by Spacewatch.

Orbit

Orbit type: Main Belt

Note: WebGL enabled browser required.

epoch2023-02-25.0
epoch JD2460000.5
perihelion date2021-11-29.27663
perihelion JD2459547.77663
argument of perihelion (°)162.16376
ascending node (°)281.46646
inclination (°)6.78904
eccentricity0.3489644
perihelion distance (AU)1.7229560
Tisserand w.r.t. Jupiter3.3
ΔV w.r.t. Earth (km/sec)8.6
semimajor axis (AU)2.6464852
mean anomaly (°)103.64123
mean daily motion (°/day)0.22892840
aphelion distance (AU)3.570
period (years)4.31
P-vector [x]0.10883999
P-vector [y]0.89702334
P-vector [z]0.42837248
Q-vector [x]-0.98728494
Q-vector [y]0.14777006
Q-vector [z]-0.05858711
absolute magnitude17.15
phase slope0.15
uncertainty0
referenceMPO 745323
observations used228
oppositions6
arc length (days)5315
first opposition used2008
last opposition used2023
residual rms (arc-secs)0.70
perturbers coarse indicatorM-v
perturbers precise indicator003Ek
first observation date used2008-10-23.0
last observation date used2023-05-13.0
computer nameMPCLINUX
JD of orbit computation2458137.130389
perihelion JD uncertainty (days)3.9256E-04
argument of perihelion uncertainty (°)1.0764E-04
ascending node uncertainty (°)4.5994E-05
inclination uncertainty (°)6.8657E-06
eccentricity uncertainty 1.6217E-07
perihelion distance uncertainty (AU)3.7004E-07
Minimum Orbit Intersection Distances (in AU)
for orbit epoch: 2460000.5, reference: E2023-JE0
Mercury1.4153
Venus1.00345
Earth0.73958
Mars0.1501
Jupiter1.69274
Saturn6.52879
Uranus15.5481
Neptune26.8864

Observations

223 total observations over interval: 2008 10 23.42685 – 2023 05 13.452138
These data are available for download (format description).

Date (UT) J2000 RA J2000 Dec Magn Location Ref
2008 10 23.42685 04 50 52.26 +32 24 23.9 19.6 V 691 – Steward Observatory, Kitt Peak-Spacewatch MPS 270513
2008 10 23.44465 04 50 52.73 +32 24 25.1 19.6 V 691 – Steward Observatory, Kitt Peak-Spacewatch MPS 270513
2008 10 23.46242 04 50 53.20 +32 24 26.1 19.5 V 691 – Steward Observatory, Kitt Peak-Spacewatch MPS 270513
2008 12 01.37411 04 41 44.12 +30 21 22.0 17.7 V G96 – Mt. Lemmon Survey MPS 268855
2008 12 01.38572 04 41 43.54 +30 21 16.5 17.7 V G96 – Mt. Lemmon Survey MPS 268855
2008 12 01.39446 04 41 43.11 +30 21 12.2 17.7 V G96 – Mt. Lemmon Survey MPS 268855
2008 12 01.40474 04 41 42.61 +30 21 07.1 17.8 V G96 – Mt. Lemmon Survey MPS 268855
2008 12 01.91819 04 41 20.13 +30 17 02.7 17.4 C B40 – Skylive Observatory, Catania MPS 267768
2008 12 01.92292 04 41 19.88 +30 17 00.1 18.1 C B40 – Skylive Observatory, Catania MPS 267768
2008 12 01.94887 04 41 18.57 +30 16 48.0 17.8 C B40 – Skylive Observatory, Catania MPS 267768
2008 12 04.85720 04 39 07.54 +29 52 42.7 18.2 C B40 – Skylive Observatory, Catania MPS 267768
2008 12 04.85966 04 39 07.35 +29 52 41.3 18.1 C B40 – Skylive Observatory, Catania MPS 267768
2008 12 04.87497 04 39 06.64 +29 52 33.7 18.0 C B40 – Skylive Observatory, Catania MPS 267768
2008 12 06.25266 04 38 04.74 +29 40 37.3 18.4   704 – Lincoln Laboratory ETS, New Mexico MPS 268855
2008 12 06.26522 04 38 04.09 +29 40 31.6 18.5   704 – Lincoln Laboratory ETS, New Mexico MPS 268855
2008 12 06.29048 04 38 02.86 +29 40 18.0 18.4   704 – Lincoln Laboratory ETS, New Mexico MPS 268855
2008 12 06.30301 04 38 02.24 +29 40 11.4 18.5   704 – Lincoln Laboratory ETS, New Mexico MPS 268855
2008 12 17.86159 04 30 28.22 +27 50 40.4 17.7 R B74 – Santa Maria de Montmagastrell MPS 269117
2008 12 17.86646 04 30 28.04 +27 50 38.4 17.7 R B74 – Santa Maria de Montmagastrell MPS 269117
2008 12 17.87578 04 30 27.73 +27 50 31.9 18.1 R B74 – Santa Maria de Montmagastrell MPS 269117
2008 12 19.20133 04 29 47.29 +27 37 31.0 18.3   704 – Lincoln Laboratory ETS, New Mexico MPS 269364
2008 12 19.21393 04 29 46.90 +27 37 23.7 18.7   704 – Lincoln Laboratory ETS, New Mexico MPS 269364
2008 12 19.22653 04 29 46.43 +27 37 15.9 18.6   704 – Lincoln Laboratory ETS, New Mexico MPS 269364
2008 12 19.23914 04 29 46.02 +27 37 08.7 18.6   704 – Lincoln Laboratory ETS, New Mexico MPS 269364
2008 12 19.25176 04 29 45.57 +27 37 01.7 18.5   704 – Lincoln Laboratory ETS, New Mexico MPS 269365
2008 12 22.75846 04 28 15.60 +27 02 28.1 18.8 V 104 – San Marcello Pistoiese MPS 269365
2008 12 22.80567 04 28 14.47 +27 02 01.8 19.1 V 104 – San Marcello Pistoiese MPS 269365
2008 12 31.20070 04 26 28.43 +25 42 42.1 18.6   704 – Lincoln Laboratory ETS, New Mexico MPS 270513
2008 12 31.21340 04 26 28.35 +25 42 35.0 18.8   704 – Lincoln Laboratory ETS, New Mexico MPS 270513
2008 12 31.22603 04 26 28.29 +25 42 28.4 18.6   704 – Lincoln Laboratory ETS, New Mexico MPS 270513
2008 12 31.23894 04 26 28.17 +25 42 21.0 18.9   704 – Lincoln Laboratory ETS, New Mexico MPS 270513
2008 12 31.25160 04 26 28.09 +25 42 13.9 18.9   704 – Lincoln Laboratory ETS, New Mexico MPS 270513
2009 01 01.08012 04 26 27.62 +25 34 49.3 19.2 V 691 – Steward Observatory, Kitt Peak-Spacewatch MPS 270513
2009 01 01.09381 04 26 27.63 +25 34 42.6 19.3 V 691 – Steward Observatory, Kitt Peak-Spacewatch MPS 270513
2009 01 01.10750 04 26 27.59 +25 34 35.0 19.2 V 691 – Steward Observatory, Kitt Peak-Spacewatch MPS 270513
2009 01 07.08102 04 27 11.73 +24 44 07.0 19.1 V 691 – Steward Observatory, Kitt Peak-Spacewatch MPS 272790
2009 01 07.09837 04 27 11.93 +24 43 59.3 19.1 V 691 – Steward Observatory, Kitt Peak-Spacewatch MPS 272790
2009 01 07.11201 04 27 12.08 +24 43 52.9 19.1 V 691 – Steward Observatory, Kitt Peak-Spacewatch MPS 272790
2009 01 17.19675 04 31 48.70 +23 32 16.9 19.7   704 – Lincoln Laboratory ETS, New Mexico MPS 272790
2009 01 17.20906 04 31 49.05 +23 32 11.0 19.4   704 – Lincoln Laboratory ETS, New Mexico MPS 272790
2009 01 17.22131 04 31 49.51 +23 32 07.0 19.8   704 – Lincoln Laboratory ETS, New Mexico MPS 272790
2009 01 17.23358 04 31 50.10 +23 32 02.4 20.0   704 – Lincoln Laboratory ETS, New Mexico MPS 272790
2009 01 17.24572 04 31 50.40 +23 31 56.5 20.3   704 – Lincoln Laboratory ETS, New Mexico MPS 272790
2009 01 28.10669 04 41 11.18 +22 34 22.0 18.7 V 703 – Catalina Sky Survey MPS 272790
2009 01 28.11296 04 41 11.68 +22 34 20.4 19.0 V 703 – Catalina Sky Survey MPS 272790
2009 01 28.11851 04 41 12.04 +22 34 19.2 18.4 V 703 – Catalina Sky Survey MPS 272790
2009 01 28.12336 04 41 12.33 +22 34 16.7 18.9 V 703 – Catalina Sky Survey MPS 272790
2009 02 01.11862 04 45 39.70 +22 17 39.1 19.5 V G96 – Mt. Lemmon Survey MPS 272790
2009 02 01.12414 04 45 40.06 +22 17 37.9 19.1 V G96 – Mt. Lemmon Survey MPS 272790
2009 02 01.12968 04 45 40.46 +22 17 36.6 19.7 V G96 – Mt. Lemmon Survey MPS 272790
2009 02 01.13519 04 45 40.82 +22 17 35.4 19.7 V G96 – Mt. Lemmon Survey MPS 272790
2012 09 14.27114 23 33 36.64 +09 43 33.3 19.5   704 – Lincoln Laboratory ETS, New Mexico MPS 433383
2012 09 14.28547 23 33 35.83 +09 43 29.3 20.3   704 – Lincoln Laboratory ETS, New Mexico MPS 433383
2012 09 14.29972 23 33 34.92 +09 43 27.3 20.1   704 – Lincoln Laboratory ETS, New Mexico MPS 433383
2012 09 14.31396 23 33 34.00 +09 43 25.1 19.8   704 – Lincoln Laboratory ETS, New Mexico MPS 433383
2012 09 23.36941 23 24 44.46 +09 04 13.0 19.6 V 703 – Catalina Sky Survey MPS 433383
2012 09 23.37345 23 24 44.24 +09 04 13.4 20.0 V 703 – Catalina Sky Survey MPS 433383
2012 09 23.37756 23 24 44.06 +09 04 12.5 19.8 V 703 – Catalina Sky Survey MPS 433383
2012 09 23.38174 23 24 43.81 +09 04 09.9 19.9 V 703 – Catalina Sky Survey MPS 433383
2012 10 07.260945 23 12 17.449 +07 44 10.71 19.8 w F51 – Pan-STARRS 1, Haleakala MPS 435257
2012 10 07.274399 23 12 16.784 +07 44 05.72 19.7 w F51 – Pan-STARRS 1, Haleakala MPS 435257
2012 10 07.290503 23 12 15.988 +07 43 59.82 19.8 w F51 – Pan-STARRS 1, Haleakala MPS 435257
2012 10 09.11248 23 10 52.96 +07 32 41.1 19.8 V 691 – Steward Observatory, Kitt Peak-Spacewatch MPS 435257
2012 10 09.14990 23 10 51.20 +07 32 27.3 19.8 V 691 – Steward Observatory, Kitt Peak-Spacewatch MPS 435257
2012 10 09.16891 23 10 50.33 +07 32 19.8 20.0 V 691 – Steward Observatory, Kitt Peak-Spacewatch MPS 435257
2016 08 29.26289 21 16 56.37 -08 12 14.0 20.9 V G96 – Mt. Lemmon Survey MPS 725592
2016 08 29.26785 21 16 56.14 -08 12 15.6 21.1 V G96 – Mt. Lemmon Survey MPS 725592
2016 08 29.27286 21 16 55.87 -08 12 16.1 20.9 V G96 – Mt. Lemmon Survey MPS 725592
2016 08 29.27779 21 16 55.55 -08 12 17.5 21.1 V G96 – Mt. Lemmon Survey MPS 725592
2016 08 30.34790 21 15 57.746 -08 15 55.84 20.8 w F51 – Pan-STARRS 1, Haleakala MPS 725592
2016 08 30.36029 21 15 57.057 -08 15 58.44 20.9 w F51 – Pan-STARRS 1, Haleakala MPS 725592
2016 08 30.37271 21 15 56.370 -08 16 00.87 20.8 w F51 – Pan-STARRS 1, Haleakala MPS 725592
2016 08 30.38514 21 15 55.678 -08 16 03.46 20.8 w F51 – Pan-STARRS 1, Haleakala MPS 725592
2016 09 06.18614 21 10 11.24 -08 39 03.5 20.7 V G96 – Mt. Lemmon Survey MPS 727735
2016 09 06.19320 21 10 10.89 -08 39 05.0 21.1 V G96 – Mt. Lemmon Survey MPS 727735
2016 09 06.20024 21 10 10.53 -08 39 06.7 21.2 V G96 – Mt. Lemmon Survey MPS 727735
2016 09 06.20733 21 10 10.20 -08 39 08.0 20.9 V G96 – Mt. Lemmon Survey MPS 727735
2016 11 03.21259 21 07 01.492 -09 45 12.22 21.8 w F51 – Pan-STARRS 1, Haleakala MPS 739847
2016 11 03.22552 21 07 02.002 -09 45 10.95 21.6 w F51 – Pan-STARRS 1, Haleakala MPS 739847
2016 11 03.25135 21 07 03.041 -09 45 08.25 21.5 w F51 – Pan-STARRS 1, Haleakala MPS 739847
2017 12 21.49727 11 37 08.42 -03 44 50.2 21.4 G G96 – Mt. Lemmon Survey MPS 849158
2017 12 21.50241 11 37 08.63 -03 44 53.5 22.0 G G96 – Mt. Lemmon Survey MPS 849158
2017 12 21.50757 11 37 08.90 -03 44 57.0 21.6 G G96 – Mt. Lemmon Survey MPS 849158
2017 12 21.51273 11 37 09.23 -03 45 00.3 21.1 G G96 – Mt. Lemmon Survey MPS 849158
2018 01 18.46286 11 52 41.19 -07 50 48.7 20.7 G G96 – Mt. Lemmon Survey MPS 857732
2018 01 18.46799 11 52 41.24 -07 50 50.7 20.5 G G96 – Mt. Lemmon Survey MPS 857732
2018 01 18.47315 11 52 41.26 -07 50 52.4 20.5 G G96 – Mt. Lemmon Survey MPS 857732
2018 01 18.47831 11 52 41.31 -07 50 54.5 20.4 G G96 – Mt. Lemmon Survey MPS 857732
